Time,TemperatureF,DewpointF,PressureIn,WindDirection,WindDirectionDegrees,WindSpeedMPH,WindSpeedGustMPH,Humidity,HourlyPrecipIn,Conditions,Clouds,dailyrainin,SoftwareType,DateUTC
2016-12-07 00:03:00,33.0,31.0,29.37,NE,45,1.0,3.0,92,0.00,,,0.00,Rainwise IP-100,2016-12-07 05:03:00,
2016-12-07 00:08:00,33.0,31.0,29.37,NNE,22,3.0,4.0,91,0.00,,,0.00,Rainwise IP-100,2016-12-07 05:08:00,
2016-12-07 00:14:00,33.0,31.0,29.36,NNE,22,0.0,5.0,91,0.00,,,0.00,Rainwise IP-100,2016-12-07 05:14:00,
2016-12-07 00:19:00,33.0,31.0,29.36,NNE,22,4.0,5.0,91,0.00,,,0.00,Rainwise IP-100,2016-12-07 05:19:00,
2016-12-07 00:24:00,33.0,31.0,29.35,NNE,22,4.0,6.0,91,0.00,,,0.00,Rainwise IP-100,2016-12-07 05:24:00,
2016-12-07 00:29:00,33.0,31.0,29.35,North,360,2.0,6.0,90,0.00,,,0.00,Rainwise IP-100,2016-12-07 05:29:00,
2016-12-07 00:34:00,33.0,31.0,29.35,NNE,22,4.0,7.0,89,0.00,,,0.00,Rainwise IP-100,2016-12-07 05:34:00,
2016-12-07 00:39:00,33.0,31.0,29.35,NE,45,4.0,5.0,89,0.00,,,0.00,Rainwise IP-100,2016-12-07 05:39:00,
2016-12-07 00:44:00,33.0,31.0,29.35,North,360,2.0,5.0,89,0.00,,,0.00,Rainwise IP-100,2016-12-07 05:44:00,
2016-12-07 00:49:00,33.0,31.0,29.35,NE,45,4.0,6.0,88,0.00,,,0.00,Rainwise IP-100,2016-12-07 05:49:00,
2016-12-07 00:54:00,33.0,31.0,29.36,NNE,22,2.0,7.0,88,0.00,,,0.00,Rainwise IP-100,2016-12-07 05:54:00,
2016-12-07 00:59:00,33.0,31.0,29.36,North,360,1.0,6.0,88,0.00,,,0.00,Rainwise IP-100,2016-12-07 05:59:00,
2016-12-07 01:04:00,33.0,31.0,29.36,NNE,22,2.0,6.0,88,0.00,,,0.00,Rainwise IP-100,2016-12-07 06:04:00,
2016-12-07 01:09:00,33.0,31.0,29.36,NW,315,1.0,6.0,88,0.00,,,0.00,Rainwise IP-100,2016-12-07 06:09:00,
2016-12-07 01:14:00,33.0,31.0,29.35,NNE,22,7.0,7.0,87,0.00,,,0.00,Rainwise IP-100,2016-12-07 06:14:00,
2016-12-07 01:19:00,33.0,31.0,29.35,NW,315,2.0,7.0,87,0.00,,,0.00,Rainwise IP-100,2016-12-07 06:19:00,
2016-12-07 01:24:00,33.0,31.0,29.36,NW,315,2.0,6.0,87,0.00,,,0.00,Rainwise IP-100,2016-12-07 06:24:00,
2016-12-07 01:29:00,33.0,31.0,29.36,NW,315,3.0,5.0,87,0.00,,,0.00,Rainwise IP-100,2016-12-07 06:29:00,
2016-12-07 01:34:00,34.0,31.0,29.37,North,360,3.0,6.0,87,0.00,,,0.00,Rainwise IP-100,2016-12-07 06:34:00,
2016-12-07 01:39:00,34.0,31.0,29.37,NW,315,4.0,6.0,86,0.00,,,0.00,Rainwise IP-100,2016-12-07 06:39:00,
2016-12-07 01:44:00,34.0,31.0,29.37,NW,315,4.0,6.0,87,0.00,,,0.00,Rainwise IP-100,2016-12-07 06:44:00,
2016-12-07 01:49:00,33.0,29.0,29.37,NNW,337,2.0,6.0,86,0.00,,,0.00,Rainwise IP-100,2016-12-07 06:49:00,
2016-12-07 01:54:00,33.0,29.0,29.37,NNW,337,6.0,6.0,86,0.00,,,0.00,Rainwise IP-100,2016-12-07 06:54:00,
2016-12-07 01:59:00,33.0,29.0,29.37,NNW,337,6.0,8.0,86,0.00,,,0.00,Rainwise IP-100,2016-12-07 06:59:00,
2016-12-07 02:04:00,33.0,29.0,29.37,NNW,337,4.0,8.0,86,0.00,,,0.00,Rainwise IP-100,2016-12-07 07:04:00,
2016-12-07 02:09:00,33.0,29.0,29.37,NNW,337,5.0,6.0,86,0.00,,,0.00,Rainwise IP-100,2016-12-07 07:09:00,
2016-12-07 02:14:00,33.0,29.0,29.36,North,360,6.0,9.0,86,0.00,,,0.00,Rainwise IP-100,2016-12-07 07:14:00,
2016-12-07 02:19:00,33.0,29.0,29.36,NNE,22,5.0,7.0,86,0.00,,,0.00,Rainwise IP-100,2016-12-07 07:19:00,
2016-12-07 02:24:00,33.0,29.0,29.35,NNW,337,4.0,8.0,86,0.00,,,0.00,Rainwise IP-100,2016-12-07 07:24:00,
2016-12-07 02:29:00,33.0,29.0,29.35,NNE,22,4.0,8.0,86,0.00,,,0.00,Rainwise IP-100,2016-12-07 07:29:00,
2016-12-07 02:34:00,33.0,29.0,29.35,North,360,4.0,8.0,86,0.00,,,0.00,Rainwise IP-100,2016-12-07 07:34:00,
2016-12-07 02:39:00,33.0,29.0,29.35,North,360,6.0,8.0,86,0.00,,,0.00,Rainwise IP-100,2016-12-07 07:39:00,
2016-12-07 02:44:00,33.0,29.0,29.35,NNE,22,5.0,9.0,86,0.00,,,0.00,Rainwise IP-100,2016-12-07 07:44:00,
2016-12-07 02:49:00,33.0,31.0,29.35,NNW,337,7.0,7.0,87,0.00,,,0.00,Rainwise IP-100,2016-12-07 07:49:00,
2016-12-07 02:54:00,33.0,31.0,29.34,North,360,2.0,9.0,87,0.00,,,0.00,Rainwise IP-100,2016-12-07 07:54:00,
2016-12-07 02:59:00,33.0,31.0,29.34,NNW,337,4.0,10.0,87,0.00,,,0.00,Rainwise IP-100,2016-12-07 07:59:00,
2016-12-07 03:04:00,33.0,31.0,29.34,NNW,337,4.0,10.0,88,0.00,,,0.00,Rainwise IP-100,2016-12-07 08:04:00,
2016-12-07 03:09:00,33.0,31.0,29.34,NNE,22,0.0,8.0,88,0.00,,,0.00,Rainwise IP-100,2016-12-07 08:09:00,
2016-12-07 03:14:00,33.0,31.0,29.33,East,90,1.0,9.0,89,0.00,,,0.00,Rainwise IP-100,2016-12-07 08:14:00,
2016-12-07 03:19:00,33.0,31.0,29.33,East,90,5.0,6.0,89,0.00,,,0.00,Rainwise IP-100,2016-12-07 08:19:00,
2016-12-07 03:24:00,33.0,31.0,29.33,NE,45,2.0,7.0,90,0.00,,,0.00,Rainwise IP-100,2016-12-07 08:24:00,
2016-12-07 03:29:00,33.0,31.0,29.33,NNE,22,4.0,4.0,91,0.00,,,0.00,Rainwise IP-100,2016-12-07 08:29:00,
2016-12-07 03:34:00,32.0,29.0,29.33,North,360,5.0,6.0,91,0.00,,,0.00,Rainwise IP-100,2016-12-07 08:34:00,
2016-12-07 03:39:00,32.0,29.0,29.33,North,360,2.0,6.0,91,0.00,,,0.00,Rainwise IP-100,2016-12-07 08:39:00,
2016-12-07 03:44:00,32.0,29.0,29.33,North,360,2.0,2.0,91,0.00,,,0.00,Rainwise IP-100,2016-12-07 08:44:00,
2016-12-07 03:49:00,32.0,29.0,29.33,NE,45,1.0,3.0,91,0.00,,,0.00,Rainwise IP-100,2016-12-07 08:49:00,
2016-12-07 03:54:00,32.0,31.0,29.33,NE,45,0.0,3.0,92,0.00,,,0.00,Rainwise IP-100,2016-12-07 08:54:00,
2016-12-07 03:59:00,32.0,31.0,29.33,NE,45,3.0,4.0,92,0.00,,,0.00,Rainwise IP-100,2016-12-07 08:59:00,
2016-12-07 04:04:00,33.0,31.0,29.33,NE,45,1.0,4.0,91,0.00,,,0.00,Rainwise IP-100,2016-12-07 09:04:00,
2016-12-07 04:09:00,32.0,31.0,29.33,NE,45,0.0,4.0,92,0.00,,,0.00,Rainwise IP-100,2016-12-07 09:09:00,
2016-12-07 04:14:00,32.0,29.0,29.33,NE,45,1.0,6.0,91,0.00,,,0.00,Rainwise IP-100,2016-12-07 09:14:00,
2016-12-07 04:19:00,32.0,31.0,29.33,NE,45,0.0,2.0,92,0.00,,,0.00,Rainwise IP-100,2016-12-07 09:19:00,
2016-12-07 04:24:00,32.0,31.0,29.33,NE,45,0.0,1.0,92,0.00,,,0.00,Rainwise IP-100,2016-12-07 09:24:00,
2016-12-07 04:29:00,32.0,31.0,29.33,North,360,0.0,4.0,93,0.00,,,0.00,Rainwise IP-100,2016-12-07 09:29:00,
2016-12-07 04:34:00,32.0,31.0,29.33,NNW,337,1.0,3.0,93,0.00,,,0.00,Rainwise IP-100,2016-12-07 09:34:00,
2016-12-07 04:39:00,32.0,31.0,29.33,WNW,292,2.0,3.0,94,0.00,,,0.00,Rainwise IP-100,2016-12-07 09:39:00,
2016-12-07 04:44:00,32.0,31.0,29.34,NW,315,3.0,6.0,95,0.00,,,0.00,Rainwise IP-100,2016-12-07 09:44:00,
2016-12-07 04:49:00,32.0,31.0,29.34,NNW,337,1.0,6.0,95,0.00,,,0.00,Rainwise IP-100,2016-12-07 09:49:00,
2016-12-07 04:59:00,32.0,31.0,29.34,North,360,1.0,6.0,95,0.00,,,0.00,Rainwise IP-100,2016-12-07 09:59:00,
2016-12-07 05:04:00,32.0,31.0,29.34,NNW,337,1.0,6.0,95,0.00,,,0.00,Rainwise IP-100,2016-12-07 10:04:00,
2016-12-07 05:09:00,32.0,31.0,29.34,NW,315,5.0,6.0,95,0.00,,,0.00,Rainwise IP-100,2016-12-07 10:09:00,
2016-12-07 05:14:00,32.0,31.0,29.34,North,360,4.0,7.0,95,0.00,,,0.00,Rainwise IP-100,2016-12-07 10:14:00,
2016-12-07 05:19:00,32.0,31.0,29.34,NNW,337,3.0,5.0,95,0.00,,,0.00,Rainwise IP-100,2016-12-07 10:19:00,
2016-12-07 05:24:00,32.0,31.0,29.34,North,360,2.0,6.0,95,0.00,,,0.00,Rainwise IP-100,2016-12-07 10:24:00,
2016-12-07 05:29:00,32.0,31.0,29.34,NNE,22,2.0,6.0,95,0.00,,,0.00,Rainwise IP-100,2016-12-07 10:29:00,
2016-12-07 05:34:00,32.0,31.0,29.35,NNE,22,2.0,3.0,95,0.00,,,0.00,Rainwise IP-100,2016-12-07 10:34:00,
2016-12-07 05:39:00,32.0,31.0,29.35,North,360,5.0,6.0,95,0.00,,,0.00,Rainwise IP-100,2016-12-07 10:39:00,
2016-12-07 05:44:00,32.0,31.0,29.35,North,360,4.0,6.0,95,0.00,,,0.00,Rainwise IP-100,2016-12-07 10:44:00,
2016-12-07 05:49:00,32.0,31.0,29.35,NNE,22,3.0,7.0,95,0.00,,,0.00,Rainwise IP-100,2016-12-07 10:49:00,
2016-12-07 05:54:00,32.0,31.0,29.35,NNE,22,1.0,3.0,95,0.00,,,0.00,Rainwise IP-100,2016-12-07 10:54:00,
2016-12-07 05:59:00,32.0,31.0,29.35,NNE,22,2.0,3.0,95,0.00,,,0.00,Rainwise IP-100,2016-12-07 10:59:00,
2016-12-07 06:04:00,32.0,31.0,29.34,NNE,22,4.0,6.0,95,0.00,,,0.00,Rainwise IP-100,2016-12-07 11:04:00,
2016-12-07 06:09:00,32.0,31.0,29.34,NW,315,4.0,6.0,95,0.00,,,0.00,Rainwise IP-100,2016-12-07 11:09:00,
2016-12-07 06:14:00,32.0,31.0,29.35,NW,315,4.0,6.0,95,0.00,,,0.00,Rainwise IP-100,2016-12-07 11:14:00,
2016-12-07 06:19:00,32.0,31.0,29.35,NW,315,3.0,6.0,95,0.00,,,0.00,Rainwise IP-100,2016-12-07 11:19:00,
2016-12-07 06:24:00,32.0,31.0,29.35,NNW,337,2.0,6.0,95,0.00,,,0.00,Rainwise IP-100,2016-12-07 11:24:00,
2016-12-07 06:29:00,32.0,31.0,29.35,NNW,337,2.0,5.0,95,0.00,,,0.00,Rainwise IP-100,2016-12-07 11:29:00,
2016-12-07 06:34:00,32.0,31.0,29.36,NW,315,3.0,5.0,95,0.00,,,0.00,Rainwise IP-100,2016-12-07 11:34:00,
2016-12-07 06:39:00,32.0,31.0,29.36,NW,315,3.0,4.0,95,0.00,,,0.00,Rainwise IP-100,2016-12-07 11:39:00,
2016-12-07 06:44:00,32.0,31.0,29.37,NW,315,1.0,4.0,95,0.00,,,0.00,Rainwise IP-100,2016-12-07 11:44:00,
2016-12-07 06:49:00,32.0,31.0,29.37,NW,315,6.0,6.0,95,0.00,,,0.00,Rainwise IP-100,2016-12-07 11:49:00,
2016-12-07 06:54:00,32.0,31.0,29.37,NW,315,5.0,6.0,95,0.00,,,0.00,Rainwise IP-100,2016-12-07 11:54:00,
2016-12-07 06:59:00,32.0,31.0,29.37,WNW,292,3.0,7.0,95,0.00,,,0.00,Rainwise IP-100,2016-12-07 11:59:00,
2016-12-07 07:04:00,32.0,31.0,29.37,NW,315,5.0,6.0,95,0.00,,,0.00,Rainwise IP-100,2016-12-07 12:04:00,
2016-12-07 07:09:00,32.0,31.0,29.37,WNW,292,2.0,6.0,95,0.00,,,0.00,Rainwise IP-100,2016-12-07 12:09:00,
2016-12-07 07:14:00,32.0,31.0,29.37,NW,315,4.0,6.0,95,0.00,,,0.00,Rainwise IP-100,2016-12-07 12:14:00,
2016-12-07 07:19:00,32.0,31.0,29.37,WNW,292,4.0,6.0,95,0.00,,,0.00,Rainwise IP-100,2016-12-07 12:19:00,
2016-12-07 07:24:00,32.0,31.0,29.39,WNW,292,1.0,4.0,95,0.00,,,0.00,Rainwise IP-100,2016-12-07 12:24:00,
2016-12-07 07:29:00,32.0,31.0,29.39,WNW,292,6.0,6.0,95,0.00,,,0.00,Rainwise IP-100,2016-12-07 12:29:00,
2016-12-07 07:34:00,32.0,31.0,29.39,West,270,1.0,6.0,95,0.00,,,0.00,Rainwise IP-100,2016-12-07 12:34:00,
2016-12-07 07:39:00,32.0,31.0,29.39,West,270,1.0,5.0,95,0.00,,,0.00,Rainwise IP-100,2016-12-07 12:39:00,
2016-12-07 07:44:00,32.0,31.0,29.39,WNW,292,3.0,4.0,95,0.00,,,0.00,Rainwise IP-100,2016-12-07 12:44:00,
2016-12-07 07:49:00,32.0,31.0,29.39,WNW,292,4.0,5.0,95,0.00,,,0.00,Rainwise IP-100,2016-12-07 12:49:00,
2016-12-07 07:54:00,32.0,31.0,29.39,WNW,292,2.0,4.0,95,0.00,,,0.00,Rainwise IP-100,2016-12-07 12:54:00,
2016-12-07 07:59:00,32.0,31.0,29.39,WNW,292,3.0,4.0,95,0.00,,,0.00,Rainwise IP-100,2016-12-07 12:59:00,
2016-12-07 08:04:00,32.0,31.0,29.39,WNW,292,3.0,5.0,95,0.00,,,0.00,Rainwise IP-100,2016-12-07 13:04:00,
2016-12-07 08:09:00,32.0,31.0,29.39,WNW,292,1.0,4.0,95,0.00,,,0.00,Rainwise IP-100,2016-12-07 13:09:00,
2016-12-07 08:14:00,32.0,31.0,29.39,WNW,292,3.0,5.0,95,0.00,,,0.00,Rainwise IP-100,2016-12-07 13:14:00,
2016-12-07 08:19:00,32.0,31.0,29.39,WNW,292,1.0,4.0,95,0.00,,,0.00,Rainwise IP-100,2016-12-07 13:19:00,
2016-12-07 08:24:00,32.0,31.0,29.39,WNW,292,2.0,6.0,95,0.00,,,0.00,Rainwise IP-100,2016-12-07 13:24:00,
2016-12-07 08:34:00,32.0,31.0,29.40,WNW,292,3.0,4.0,95,0.00,,,0.00,Rainwise IP-100,2016-12-07 13:34:00,
2016-12-07 08:44:00,32.0,31.0,29.40,NW,315,2.0,4.0,95,0.00,,,0.00,Rainwise IP-100,2016-12-07 13:44:00,
2016-12-07 08:49:00,32.0,31.0,29.40,NW,315,2.0,4.0,95,0.00,,,0.00,Rainwise IP-100,2016-12-07 13:49:00,
2016-12-07 08:54:00,32.0,31.0,29.40,NNW,337,5.0,5.0,95,0.00,,,0.00,Rainwise IP-100,2016-12-07 13:54:00,
2016-12-07 08:59:00,32.0,31.0,29.40,NNW,337,2.0,5.0,95,0.00,,,0.00,Rainwise IP-100,2016-12-07 13:59:00,
2016-12-07 09:04:00,32.0,31.0,29.39,NNE,22,0.0,4.0,95,0.00,,,0.00,Rainwise IP-100,2016-12-07 14:04:00,
2016-12-07 09:09:00,33.0,32.0,29.39,North,360,4.0,5.0,95,0.00,,,0.00,Rainwise IP-100,2016-12-07 14:09:00,
2016-12-07 09:14:00,33.0,32.0,29.39,NNW,337,4.0,5.0,95,0.00,,,0.00,Rainwise IP-100,2016-12-07 14:14:00,
2016-12-07 09:19:00,33.0,32.0,29.39,NNW,337,4.0,7.0,95,0.00,,,0.00,Rainwise IP-100,2016-12-07 14:19:00,
2016-12-07 09:24:00,33.0,32.0,29.40,NW,315,5.0,6.0,95,0.00,,,0.00,Rainwise IP-100,2016-12-07 14:24:00,
2016-12-07 09:29:00,33.0,32.0,29.40,NNW,337,4.0,6.0,95,0.00,,,0.00,Rainwise IP-100,2016-12-07 14:29:00,
2016-12-07 09:34:00,33.0,32.0,29.39,NW,315,3.0,6.0,95,0.00,,,0.00,Rainwise IP-100,2016-12-07 14:34:00,
2016-12-07 09:39:00,33.0,32.0,29.39,NNW,337,1.0,6.0,95,0.00,,,0.00,Rainwise IP-100,2016-12-07 14:39:00,
2016-12-07 09:44:00,33.0,32.0,29.40,NNW,337,5.0,6.0,95,0.00,,,0.00,Rainwise IP-100,2016-12-07 14:44:00,
2016-12-07 09:49:00,34.0,33.0,29.40,NNW,337,1.0,6.0,95,0.00,,,0.00,Rainwise IP-100,2016-12-07 14:49:00,
2016-12-07 09:54:00,34.0,33.0,29.40,NW,315,3.0,6.0,95,0.00,,,0.00,Rainwise IP-100,2016-12-07 14:54:00,
2016-12-07 09:59:00,34.0,33.0,29.40,NW,315,3.0,5.0,95,0.00,,,0.00,Rainwise IP-100,2016-12-07 14:59:00,
2016-12-07 10:09:00,34.0,33.0,29.40,North,360,1.0,5.0,95,0.00,,,0.00,Rainwise IP-100,2016-12-07 15:09:00,
2016-12-07 10:14:00,34.0,33.0,29.40,NNE,22,1.0,5.0,95,0.00,,,0.00,Rainwise IP-100,2016-12-07 15:14:00,
2016-12-07 10:19:00,34.0,33.0,29.40,NNE,22,0.0,1.0,95,0.00,,,0.00,Rainwise IP-100,2016-12-07 15:19:00,
2016-12-07 10:24:00,34.0,33.0,29.40,NNE,22,1.0,3.0,95,0.00,,,0.00,Rainwise IP-100,2016-12-07 15:24:00,
2016-12-07 10:29:00,34.0,33.0,29.40,NNE,22,0.0,1.0,95,0.00,,,0.00,Rainwise IP-100,2016-12-07 15:29:00,
2016-12-07 10:34:00,35.0,33.0,29.40,NNE,22,0.0,1.0,95,0.00,,,0.00,Rainwise IP-100,2016-12-07 15:34:00,
2016-12-07 10:39:00,35.0,33.0,29.40,NNE,22,1.0,1.0,95,0.00,,,0.00,Rainwise IP-100,2016-12-07 15:39:00,
2016-12-07 10:44:00,35.0,33.0,29.40,NNE,22,0.0,1.0,95,0.00,,,0.00,Rainwise IP-100,2016-12-07 15:44:00,
2016-12-07 10:49:00,35.0,33.0,29.40,NNE,22,0.0,1.0,95,0.00,,,0.00,Rainwise IP-100,2016-12-07 15:49:00,
2016-12-07 10:54:00,35.0,33.0,29.40,NNE,22,0.0,2.0,95,0.00,,,0.00,Rainwise IP-100,2016-12-07 15:54:00,
2016-12-07 10:59:00,35.0,33.0,29.40,NNE,22,0.0,1.0,95,0.00,,,0.00,Rainwise IP-100,2016-12-07 15:59:00,
2016-12-07 11:04:00,35.0,33.0,29.39,NW,315,1.0,5.0,95,0.00,,,0.00,Rainwise IP-100,2016-12-07 16:04:00,
2016-12-07 11:09:00,35.0,33.0,29.39,NW,315,2.0,4.0,95,0.00,,,0.00,Rainwise IP-100,2016-12-07 16:09:00,
2016-12-07 11:14:00,35.0,33.0,29.39,NW,315,1.0,3.0,95,0.06,,,0.01,Rainwise IP-100,2016-12-07 16:14:00,
2016-12-07 11:19:00,36.0,35.0,29.39,NW,315,0.0,2.0,95,0.06,,,0.01,Rainwise IP-100,2016-12-07 16:19:00,
2016-12-07 11:24:00,36.0,35.0,29.38,NW,315,0.0,0.0,95,0.00,,,0.01,Rainwise IP-100,2016-12-07 16:24:00,
2016-12-07 11:29:00,36.0,35.0,29.38,NW,315,2.0,3.0,95,0.00,,,0.01,Rainwise IP-100,2016-12-07 16:29:00,
2016-12-07 11:34:00,36.0,35.0,29.37,NW,315,3.0,3.0,94,0.06,,,0.02,Rainwise IP-100,2016-12-07 16:34:00,
2016-12-07 11:39:00,36.0,35.0,29.37,NW,315,1.0,4.0,94,0.06,,,0.02,Rainwise IP-100,2016-12-07 16:39:00,
2016-12-07 11:44:00,36.0,33.0,29.37,North,360,2.0,4.0,92,0.06,,,0.03,Rainwise IP-100,2016-12-07 16:44:00,
2016-12-07 11:49:00,36.0,35.0,29.37,NNW,337,1.0,3.0,94,0.06,,,0.03,Rainwise IP-100,2016-12-07 16:49:00,
2016-12-07 11:54:00,36.0,35.0,29.38,WSW,247,2.0,4.0,94,0.00,,,0.03,Rainwise IP-100,2016-12-07 16:54:00,
2016-12-07 11:59:00,36.0,35.0,29.38,WNW,292,2.0,3.0,95,0.00,,,0.03,Rainwise IP-100,2016-12-07 16:59:00,
2016-12-07 12:04:00,37.0,36.0,29.37,NNW,337,0.0,5.0,94,0.00,,,0.03,Rainwise IP-100,2016-12-07 17:04:00,
2016-12-07 12:09:00,37.0,36.0,29.37,NNW,337,2.0,3.0,94,0.00,,,0.03,Rainwise IP-100,2016-12-07 17:09:00,
2016-12-07 12:14:00,37.0,36.0,29.37,NNW,337,0.0,3.0,94,0.00,,,0.03,Rainwise IP-100,2016-12-07 17:14:00,
2016-12-07 12:19:00,37.0,35.0,29.37,NNW,337,3.0,3.0,93,0.06,,,0.04,Rainwise IP-100,2016-12-07 17:19:00,
2016-12-07 12:24:00,37.0,36.0,29.37,NNW,337,1.0,3.0,94,0.06,,,0.04,Rainwise IP-100,2016-12-07 17:24:00,
2016-12-07 12:29:00,37.0,36.0,29.37,NNW,337,1.0,2.0,94,0.00,,,0.04,Rainwise IP-100,2016-12-07 17:29:00,
2016-12-07 12:34:00,37.0,36.0,29.37,NNW,337,0.0,2.0,94,0.00,,,0.04,Rainwise IP-100,2016-12-07 17:34:00,
2016-12-07 12:39:00,37.0,36.0,29.37,NNW,337,0.0,3.0,94,0.00,,,0.04,Rainwise IP-100,2016-12-07 17:39:00,
2016-12-07 12:44:00,37.0,36.0,29.36,NNW,337,2.0,3.0,94,0.00,,,0.04,Rainwise IP-100,2016-12-07 17:44:00,
2016-12-07 12:49:00,37.0,35.0,29.36,NNW,337,2.0,2.0,93,0.00,,,0.04,Rainwise IP-100,2016-12-07 17:49:00,
2016-12-07 12:54:00,37.0,35.0,29.35,NNW,337,0.0,3.0,93,0.00,,,0.04,Rainwise IP-100,2016-12-07 17:54:00,
2016-12-07 12:59:00,38.0,36.0,29.35,NNW,337,0.0,3.0,93,0.00,,,0.04,Rainwise IP-100,2016-12-07 17:59:00,
2016-12-07 13:04:00,38.0,36.0,29.35,NNW,337,2.0,4.0,92,0.00,,,0.04,Rainwise IP-100,2016-12-07 18:04:00,
2016-12-07 13:09:00,38.0,36.0,29.35,NNW,337,3.0,5.0,92,0.00,,,0.04,Rainwise IP-100,2016-12-07 18:09:00,
2016-12-07 13:14:00,38.0,36.0,29.35,NNW,337,1.0,5.0,92,0.00,,,0.04,Rainwise IP-100,2016-12-07 18:14:00,
2016-12-07 13:19:00,38.0,36.0,29.35,NNW,337,2.0,3.0,93,0.00,,,0.04,Rainwise IP-100,2016-12-07 18:19:00,
2016-12-07 13:24:00,38.0,36.0,29.35,NNW,337,1.0,2.0,91,0.00,,,0.04,Rainwise IP-100,2016-12-07 18:24:00,
2016-12-07 13:29:00,38.0,36.0,29.35,NNW,337,2.0,4.0,92,0.00,,,0.04,Rainwise IP-100,2016-12-07 18:29:00,
2016-12-07 13:34:00,38.0,36.0,29.35,NNW,337,0.0,3.0,91,0.00,,,0.04,Rainwise IP-100,2016-12-07 18:34:00,
2016-12-07 13:39:00,38.0,36.0,29.35,SSW,202,1.0,4.0,91,0.00,,,0.04,Rainwise IP-100,2016-12-07 18:39:00,
2016-12-07 13:44:00,38.0,36.0,29.35,West,270,1.0,5.0,92,0.00,,,0.04,Rainwise IP-100,2016-12-07 18:44:00,
2016-12-07 13:49:00,38.0,36.0,29.35,West,270,0.0,3.0,92,0.00,,,0.04,Rainwise IP-100,2016-12-07 18:49:00,
2016-12-07 13:54:00,38.0,36.0,29.35,West,270,2.0,3.0,92,0.00,,,0.04,Rainwise IP-100,2016-12-07 18:54:00,
2016-12-07 13:59:00,38.0,36.0,29.35,WSW,247,4.0,6.0,91,0.00,,,0.04,Rainwise IP-100,2016-12-07 18:59:00,
2016-12-07 14:04:00,37.0,35.0,29.35,WSW,247,0.0,5.0,92,0.00,,,0.04,Rainwise IP-100,2016-12-07 19:04:00,
2016-12-07 14:09:00,37.0,35.0,29.35,SW,225,1.0,2.0,93,0.00,,,0.04,Rainwise IP-100,2016-12-07 19:09:00,
2016-12-07 14:14:00,38.0,36.0,29.35,SW,225,0.0,3.0,93,0.00,,,0.04,Rainwise IP-100,2016-12-07 19:14:00,
2016-12-07 14:19:00,37.0,35.0,29.35,SW,225,0.0,2.0,92,0.00,,,0.04,Rainwise IP-100,2016-12-07 19:19:00,
2016-12-07 14:24:00,38.0,36.0,29.35,SW,225,0.0,1.0,92,0.00,,,0.04,Rainwise IP-100,2016-12-07 19:24:00,
2016-12-07 14:29:00,38.0,36.0,29.35,SSW,202,1.0,3.0,92,0.00,,,0.04,Rainwise IP-100,2016-12-07 19:29:00,
2016-12-07 14:34:00,37.0,35.0,29.35,SW,225,2.0,3.0,92,0.00,,,0.04,Rainwise IP-100,2016-12-07 19:34:00,
2016-12-07 14:39:00,37.0,35.0,29.35,West,270,1.0,4.0,93,0.00,,,0.04,Rainwise IP-100,2016-12-07 19:39:00,
2016-12-07 14:44:00,37.0,35.0,29.36,SSW,202,2.0,4.0,93,0.00,,,0.04,Rainwise IP-100,2016-12-07 19:44:00,
2016-12-07 14:49:00,37.0,35.0,29.36,SW,225,0.0,5.0,93,0.00,,,0.04,Rainwise IP-100,2016-12-07 19:49:00,
2016-12-07 14:54:00,37.0,35.0,29.36,SSW,202,2.0,6.0,93,0.06,,,0.05,Rainwise IP-100,2016-12-07 19:54:00,
2016-12-07 14:59:00,37.0,35.0,29.36,SSW,202,2.0,3.0,93,0.06,,,0.05,Rainwise IP-100,2016-12-07 19:59:00,
2016-12-07 15:09:00,37.0,36.0,29.37,SSW,202,2.0,6.0,94,0.00,,,0.05,Rainwise IP-100,2016-12-07 20:09:00,
2016-12-07 15:14:00,37.0,36.0,29.37,WSW,247,4.0,4.0,94,0.00,,,0.05,Rainwise IP-100,2016-12-07 20:14:00,
2016-12-07 15:19:00,36.0,35.0,29.37,WSW,247,0.0,6.0,94,0.00,,,0.05,Rainwise IP-100,2016-12-07 20:19:00,
2016-12-07 15:24:00,36.0,35.0,29.37,NNW,337,0.0,3.0,94,0.00,,,0.05,Rainwise IP-100,2016-12-07 20:24:00,
2016-12-07 15:29:00,36.0,35.0,29.37,WSW,247,1.0,4.0,94,0.00,,,0.05,Rainwise IP-100,2016-12-07 20:29:00,
2016-12-07 15:34:00,36.0,35.0,29.37,SSE,157,1.0,3.0,94,0.00,,,0.05,Rainwise IP-100,2016-12-07 20:34:00,
2016-12-07 15:39:00,36.0,35.0,29.37,SW,225,0.0,2.0,94,0.00,,,0.05,Rainwise IP-100,2016-12-07 20:39:00,
2016-12-07 15:44:00,36.0,35.0,29.37,SW,225,0.0,0.0,95,0.00,,,0.05,Rainwise IP-100,2016-12-07 20:44:00,
2016-12-07 15:49:00,36.0,35.0,29.37,SE,135,0.0,4.0,95,0.00,,,0.05,Rainwise IP-100,2016-12-07 20:49:00,
2016-12-07 15:54:00,36.0,35.0,29.38,South,180,0.0,0.0,95,0.00,,,0.05,Rainwise IP-100,2016-12-07 20:54:00,
2016-12-07 15:59:00,36.0,35.0,29.38,South,180,0.0,0.0,95,0.00,,,0.05,Rainwise IP-100,2016-12-07 20:59:00,
2016-12-07 16:04:00,36.0,35.0,29.38,South,180,0.0,0.0,95,0.00,,,0.05,Rainwise IP-100,2016-12-07 21:04:00,
2016-12-07 16:09:00,36.0,35.0,29.38,South,180,0.0,0.0,95,0.00,,,0.05,Rainwise IP-100,2016-12-07 21:09:00,
2016-12-07 16:14:00,36.0,35.0,29.38,South,180,0.0,1.0,95,0.00,,,0.05,Rainwise IP-100,2016-12-07 21:14:00,
2016-12-07 16:19:00,36.0,35.0,29.38,South,180,0.0,1.0,95,0.00,,,0.05,Rainwise IP-100,2016-12-07 21:19:00,
2016-12-07 16:24:00,36.0,35.0,29.39,WNW,292,1.0,2.0,95,0.00,,,0.05,Rainwise IP-100,2016-12-07 21:24:00,
2016-12-07 16:29:00,36.0,35.0,29.39,WNW,292,0.0,2.0,95,0.00,,,0.05,Rainwise IP-100,2016-12-07 21:29:00,
2016-12-07 16:34:00,36.0,35.0,29.38,WNW,292,0.0,0.0,95,0.00,,,0.05,Rainwise IP-100,2016-12-07 21:34:00,
2016-12-07 16:39:00,36.0,35.0,29.38,WNW,292,0.0,0.0,95,0.00,,,0.05,Rainwise IP-100,2016-12-07 21:39:00,
2016-12-07 16:44:00,36.0,35.0,29.38,WNW,292,0.0,0.0,95,0.00,,,0.05,Rainwise IP-100,2016-12-07 21:44:00,
2016-12-07 16:49:00,35.0,33.0,29.38,WNW,292,0.0,0.0,95,0.00,,,0.05,Rainwise IP-100,2016-12-07 21:49:00,
2016-12-07 16:54:00,35.0,33.0,29.38,WNW,292,0.0,0.0,95,0.00,,,0.05,Rainwise IP-100,2016-12-07 21:54:00,
2016-12-07 16:59:00,35.0,33.0,29.38,WNW,292,0.0,0.0,95,0.00,,,0.05,Rainwise IP-100,2016-12-07 21:59:00,
2016-12-07 17:04:00,35.0,33.0,29.38,WNW,292,0.0,0.0,95,0.00,,,0.05,Rainwise IP-100,2016-12-07 22:04:00,
2016-12-07 17:09:00,35.0,33.0,29.38,WNW,292,0.0,0.0,95,0.00,,,0.05,Rainwise IP-100,2016-12-07 22:09:00,
2016-12-07 17:14:00,35.0,33.0,29.38,WNW,292,0.0,0.0,95,0.00,,,0.05,Rainwise IP-100,2016-12-07 22:14:00,
2016-12-07 17:19:00,34.0,33.0,29.38,WNW,292,0.0,0.0,95,0.00,,,0.05,Rainwise IP-100,2016-12-07 22:19:00,